User: anonymous
Location: Muenchen
(48.1800°N, 11.5800°E)
Time: 14:06:08
(UTC+02:00)
Language:

Tiros 1 - Orbit

View from above orbital plane
View from above orbital plane
View from above satellite
View from above satellite

Ground track
Ground track

The orbit data is extracted from the following two-line orbital elements,

1 00029U 60002B   14232.12574538  .00000008  00000-0  32710-4 0  2994
2 00029 048.3780 268.6752 0024170 132.0636 228.2336 14.73272997904666
Epoch (UTC): 20 August 2014 03:01:04
Eccentricity: 0.0024170
inclination: 48.3780°
perigee height: 633 km
apogee height: 667 km
right ascension of ascending node: 268.6752°
argument of perigee: 132.0636°
revolutions per day: 14.73272997
mean anomaly at epoch: 228.2336°
orbit number at epoch: 90466

The dashed part of the orbit path shows where the satellite is in the earth's shadow,  

DLR